This is the latest recevied weather packets stored in our database for station/object OK1JIL-13. If no packets are shown the sender has not sent any weather packets the latest 10 day(s).
| Time | Temp. | Humidity | Pressure | Rain* | Wind** | Luminosity | Snow |
|---|---|---|---|---|---|---|---|
| 1777569795 | 8.89° C | 41% | 1028.8 hPa | - | - | - | - |
| 1777569196 | 9.44° C | 39% | 1028.6 hPa | - | - | - | - |
| 1777568598 | 9.44° C | 40% | 1028.7 hPa | - | - | - | - |
| 1777567996 | 8.89° C | 40% | 1028.7 hPa | - | - | - | - |
| 1777567395 | 8.33° C | 42% | 1028.8 hPa | - | - | - | - |
| 1777566795 | 10° C | 38% | 1028.9 hPa | - | - | - | - |
| 1777566196 | 10° C | 40% | 1028.9 hPa | - | - | - | - |
| 1777565595 | 9.44° C | 39% | 1028.8 hPa | - | - | - | - |
| 1777564995 | 8.89° C | 39% | 1028.9 hPa | - | - | - | - |
| 1777564399 | 9.44° C | 39% | 1028.9 hPa | - | - | - | - |
| 1777563795 | 10° C | 38% | 1028.9 hPa | - | - | - | - |
| 1777563195 | 10° C | 38% | 1028.8 hPa | - | - | - | - |
| 1777562595 | 9.44° C | 39% | 1028.8 hPa | - | - | - | - |
| 1777561995 | 9.44° C | 39% | 1028.8 hPa | - | - | - | - |
| 1777561395 | 9.44° C | 38% | 1029 hPa | - | - | - | - |
| 1777560797 | 9.44° C | 38% | 1029.1 hPa | - | - | - | - |
| 1777560195 | 9.44° C | 36% | 1029 hPa | - | - | - | - |
| 1777559596 | 10.56° C | 36% | 1029.1 hPa | - | - | - | - |
| 1777558995 | 10° C | 35% | 1029.1 hPa | - | - | - | - |
| 1777558395 | 10° C | 36% | 1029.2 hPa | - | - | - | - |
| 1777557795 | 10.56° C | 34% | 1029.3 hPa | - | - | - | - |
| 1777557195 | 10.56° C | 34% | 1029.4 hPa | - | - | - | - |
| 1777556595 | 10° C | 35% | 1029.5 hPa | - | - | - | - |
| 1777555995 | 10° C | 33% | 1029.4 hPa | - | - | - | - |
| 1777555395 | 11.11° C | 32% | 1029.5 hPa | - | - | - | - |
* Rain since midnight (hover to see other rain measurements)
** Current wind speed in m/s (hover to see current wind gust speed)